Location: Petrozavodsk
(61.7857°N, 34.3593°E)
Time: 01:02:14
(UTC+03:00)

Terra - Visible Passes

Search period start: 22 April 2019 00:00
Search period end: 02 May 2019 00:00
Orbit: 702 x 703 km, 98.2° (Epoch: 21 April)

Date Brightness Start Highest point End Pass type
(mag) Time Alt. Az. Time Alt. Az. Time Alt. Az.
22 Apr 2.4 22:45:33 13° S 22:49:42 51° W 22:54:23 10° NNW visible
23 Apr 4.2 00:26:35 10° WSW 00:28:36 12° W 00:30:38 10° NW visible
23 Apr 1.9 21:49:51 10° SSE 21:54:35 72° ENE 21:59:22 10° NNW visible
23 Apr 3.4 23:28:44 10° SSW 23:32:49 28° W 23:36:55 10° NNW visible
24 Apr 2.2 22:33:01 12° S 22:37:25 62° WSW 22:42:11 10° NNW visible
25 Apr 4.2 00:13:26 10° WSW 00:16:10 15° W 00:18:55 10° NW visible
25 Apr 2.1 21:37:42 10° SE 21:42:24 61° ENE 21:47:07 10° NNW visible
25 Apr 3.1 23:16:12 10° SSW 23:20:28 33° W 23:24:48 10° NNW visible
26 Apr 2.0 22:20:30 11° SSE 22:25:10 74° WSW 22:29:59 10° NNW visible
27 Apr 4.0 00:00:31 10° SW 00:03:45 18° W 00:07:01 10° NW visible
27 Apr 2.3 21:25:36 10° SE 21:30:13 51° ENE 21:34:52 10° NNW visible
27 Apr 2.9 23:03:41 10° SSW 23:08:09 39° W 23:12:39 10° NNW visible
28 Apr 1.9 22:08:09 10° SSE 22:12:56 88° WSW 22:17:45 10° NNW visible
28 Apr 3.8 23:47:44 10° SW 23:51:22 21° W 23:55:02 10° NW visible
29 Apr 2.6 22:51:15 10° S 22:55:51 47° W 23:00:29 10° NNW visible
30 Apr 4.3 00:33:20 10° W 00:34:50 11° WNW 00:36:20 10° WNW visible
30 Apr 1.9 21:55:56 10° SSE 22:00:43 79° ENE 22:05:31 10° NNW visible
30 Apr 3.5 23:35:03 10° SW 23:39:00 25° W 23:42:59 10° NW visible
01 May 2.3 22:38:53 10° S 22:43:34 56° WSW 22:48:18 10° NNW visible
